Theta_e
328 328 327 326 324 322 322 322 321 321 322 324 325 325 325 324 324 324 325 325 325 324 324 324 325 325 326 327 328 329 330 330 330 331 331 331 330 330 330 330 330 330 330 330 329 329 329 327 324 323 323 324 323 322 322 323 325 325 326 327 329 328 328
327 326 325 324 323 323 323 322 321 320 322 324 325 324 324 323 323 324 324 324 324 323 323 323 324 324 325 326 328 330 330 330 330 330 331 330 330 330 329 329 329 330 329 330 330 330 329 327 326 324 323 323 323 321 321 321 322 322 321 322 324 325 325
327 326 324 323 323 323 323 322 320 320 322 323 324 324 323 323 323 323 323 323 323 322 321 322 322 323 325 326 327 328 329 329 329 329 330 330 330 330 329 328 328 329 329 330 330 329 329 329 327 325 324 324 323 321 319 319 320 319 319 319 320 320 321
327 326 325 324 323 323 322 321 320 321 323 323 323 323 322 321 321 322 322 322 321 321 321 321 322 323 323 324 324 325 325 326 327 328 329 329 329 330 329 328 329 329 329 329 329 328 328 329 326 324 323 322 321 320 318 317 317 317 317 318 317 316 316
328 326 325 324 323 322 321 320 319 321 322 322 322 321 320 320 320 320 320 320 320 321 321 322 322 322 321 321 321 321 322 323 324 326 327 328 329 329 329 329 328 328 328 328 328 327 327 326 324 323 322 321 320 318 317 316 316 315 315 316 316 315 314
327 325 324 323 322 320 319 319 319 319 320 321 320 319 319 319 318 318 319 318 319 319 321 322 321 321 320 318 318 319 320 321 322 323 324 325 326 326 326 325 325 326 326 326 326 326 327 325 323 322 321 319 319 318 317 316 315 314 313 313 314 314 314
327 325 323 322 321 319 318 318 318 318 319 319 319 319 318 318 317 317 317 317 318 319 320 320 319 320 319 317 317 318 318 319 319 320 321 321 321 321 321 321 321 321 321 322 324 325 325 324 323 323 321 319 319 318 317 316 315 314 312 311 311 312 313
327 325 323 321 320 319 318 318 317 318 318 318 319 319 318 318 317 317 316 316 317 317 318 318 318 318 318 316 316 316 317 317 317 317 318 318 319 319 318 317 316 316 317 317 318 320 322 322 321 321 321 319 318 318 318 316 314 313 311 309 308 309 310
325 324 322 321 321 320 318 318 317 317 318 318 319 319 318 318 318 317 316 315 315 315 316 317 317 317 317 316 315 315 316 315 315 315 315 315 316 316 316 315 314 314 314 315 314 316 318 320 319 319 319 318 317 317 317 316 315 313 311 308 306 306 307
321 320 320 320 320 319 318 317 317 316 317 318 318 319 319 319 318 318 317 316 315 314 314 315 315 316 317 316 315 315 314 314 313 314 314 314 315 314 315 314 314 313 314 314 314 314 315 317 318 318 318 317 317 316 316 316 316 313 310 309 306 304 304
320 318 317 318 318 316 317 318 317 316 316 316 317 318 318 318 318 318 317 317 316 315 314 314 315 315 315 315 315 315 315 314 313 313 313 314 314 314 314 314 314 314 315 315 315 315 314 314 315 316 317 316 317 316 316 316 316 314 310 307 305 304 303
321 319 318 319 319 318 319 317 316 317 316 313 314 317 318 317 318 318 318 318 318 317 316 315 315 315 315 314 314 314 315 314 313 313 313 314 315 314 314 315 314 314 315 315 315 314 314 313 313 313 313 315 316 317 316 315 316 314 310 307 305 304 304
322 322 321 322 321 322 320 313 310 315 317 315 314 316 317 316 317 318 317 318 318 318 317 317 317 317 316 315 314 314 315 315 313 313 313 313 314 314 314 314 314 314 315 315 314 313 313 313 312 312 312 313 314 315 315 316 315 312 309 307 305 304 304
324 324 323 322 323 324 321 315 311 315 319 319 317 316 317 316 316 316 316 317 318 318 318 318 318 318 317 316 316 315 315 314 313 313 313 313 313 314 313 313 313 314 314 313 313 312 312 311 311 310 311 311 312 313 313 314 313 310 307 306 306 304 305
325 326 324 322 323 323 322 319 318 319 321 321 319 318 317 317 317 316 317 317 318 318 318 318 318 319 318 318 318 317 316 315 314 314 314 313 312 313 313 312 312 313 314 313 313 312 312 311 310 310 309 310 310 311 311 312 312 311 309 307 306 305 305
326 327 325 323 323 322 321 321 322 321 321 320 320 319 318 318 319 318 318 319 318 319 318 318 318 319 318 319 318 318 318 317 317 316 315 314 312 313 313 313 313 312 313 313 312 312 312 312 311 310 310 310 311 312 312 313 313 313 311 309 307 307 307
326 326 326 325 324 321 320 322 323 322 322 321 320 320 320 319 320 320 320 320 320 320 320 320 320 319 319 319 319 319 318 318 318 317 317 316 314 314 314 315 314 313 313 314 313 312 312 312 312 311 310 311 311 312 313 313 314 313 312 310 309 308 308
326 325 324 325 326 322 320 321 322 323 323 322 322 321 321 321 321 321 321 321 320 321 320 321 321 321 321 321 320 320 320 319 319 318 318 317 316 316 316 316 315 315 314 314 313 313 312 312 312 311 310 310 311 311 311 311 313 313 312 312 310 309 309
326 325 323 324 326 325 322 321 321 321 322 323 323 323 322 322 322 321 321 321 321 321 321 322 322 322 322 321 321 321 320 320 320 319 319 318 318 318 318 317 317 316 315 315 315 314 313 312 312 311 310 309 309 310 310 311 311 312 313 313 311 310 310
325 324 323 324 325 325 324 324 322 320 321 322 323 323 322 322 322 322 322 322 321 321 322 322 322 322 322 322 321 321 321 321 320 320 320 320 319 320 319 319 319 317 316 315 315 315 313 313 312 311 310 309 308 309 310 310 311 312 313 313 312 312 311
325 324 324 324 324 323 323 323 323 322 322 322 323 322 323 323 322 322 323 322 322 322 322 322 322 322 322 322 322 322 322 321 321 321 321 321 321 320 320 320 320 319 317 316 315 315 314 313 313 312 310 309 308 309 310 310 311 312 312 313 313 312 312
325 324 323 322 322 322 321 322 323 323 324 324 323 323 324 323 323 322 323 323 322 323 322 322 322 321 321 322 322 322 322 322 322 322 322 322 321 321 320 320 320 319 318 316 314 314 313 313 314 314 313 311 309 309 310 311 311 312 313 313 313 312 312
324 324 323 321 320 322 322 323 325 324 324 323 323 323 323 323 323 323 323 323 323 323 322 321 320 318 318 319 320 322 322 322 323 322 322 322 322 321 321 320 320 318 317 315 314 313 312 313 314 314 313 312 310 309 310 310 311 311 312 313 313 313 312
323 323 323 322 321 322 323 324 325 324 323 323 323 323 323 323 323 323 322 323 323 323 323 321 318 317 317 316 318 320 322 322 323 323 322 322 322 322 321 321 320 318 316 316 315 314 313 313 313 313 312 311 310 309 310 311 311 311 312 313 313 312 312
323 323 323 323 322 323 323 323 323 323 323 323 324 324 323 323 323 323 323 323 322 323 322 319 317 316 317 317 317 319 322 323 323 323 323 322 322 321 321 321 320 319 318 317 316 316 315 314 314 312 311 310 308 307 307 309 309 310 312 312 312 311 311
322 322 323 322 322 322 323 323 323 323 323 323 323 324 323 323 323 322 322 322 322 323 321 319 317 318 318 319 319 320 322 322 321 321 320 320 319 319 319 318 318 318 318 317 317 317 316 315 315 313 311 309 307 306 305 305 306 307 309 310 310 310 309
323 323 323 322 322 322 322 323 323 322 322 321 320 321 322 322 322 322 322 321 321 320 318 317 317 318 319 319 319 319 319 319 318 317 318 318 317 317 317 317 316 316 317 317 317 317 316 316 314 313 311 309 307 305 304 303 303 304 305 307 308 308 307
322 323 322 321 322 322 322 323 322 321 320 320 319 319 321 321 320 319 318 317 315 313 312 312 313 313 314 315 314 315 316 316 317 316 317 318 318 317 317 317 316 315 316 317 316 316 316 315 313 312 310 307 306 304 303 303 303 304 304 305 306 305 304
316 318 319 319 320 321 321 322 322 321 320 320 320 320 319 318 317 316 315 313 312 310 307 308 308 308 309 310 310 312 314 315 315 316 317 318 317 317 317 316 315 315 315 316 315 314 315 314 313 311 309 307 306 305 303 302 302 302 303 303 303 303 302
311 313 314 316 317 318 320 320 321 320 319 318 318 317 316 315 314 313 312 311 311 309 304 303 303 304 305 306 308 312 314 313 313 315 316 317 317 316 315 313 313 314 314 313 313 312 313 313 312 311 309 308 307 305 302 301 301 302 302 302 302 301 301
310 310 311 313 315 316 317 317 317 317 316 315 315 314 313 312 311 310 310 309 309 308 304 301 301 301 302 302 305 310 312 312 313 315 316 316 315 314 313 310 310 313 313 311 310 311 310 310 310 310 310 308 307 306 304 302 301 301 301 301 301 300 299
309 310 310 311 312 313 314 313 314 314 313 312 312 311 310 309 308 309 309 307 306 308 306 302 301 303 302 302 305 311 312 312 314 314 314 314 313 311 310 310 309 311 310 309 309 308 308 308 309 310 309 309 309 308 305 302 301 301 300 299 299 298 297
308 309 310 310 311 311 312 311 312 312 311 310 310 309 308 308 308 309 309 307 306 309 309 305 302 303 303 302 305 310 311 311 312 313 312 312 312 310 308 308 308 308 308 307 306 306 305 307 308 309 308 308 308 307 303 301 300 299 298 298 297 297 297
308 308 309 309 309 310 310 311 310 310 310 309 309 309 308 308 309 309 309 308 308 309 308 305 303 303 303 302 303 307 310 311 310 311 311 310 311 310 307 305 305 306 305 305 305 304 303 303 304 305 305 305 304 303 300 299 298 297 297 298 298 298 298
307 307 308 308 308 309 309 310 311 310 309 309 309 310 309 310 310 309 308 308 307 306 305 304 304 303 303 304 303 305 309 310 309 309 310 309 309 309 306 303 303 303 302 302 302 302 302 301 302 302 301 301 300 298 298 299 298 298 298 299 298 298 298
306 307 307 307 308 308 309 310 310 310 310 310 310 310 310 309 310 309 308 308 307 305 303 303 304 304 305 305 304 304 306 306 306 308 309 309 308 307 304 302 302 301 300 301 301 300 300 300 300 299 299 298 297 296 297 298 298 298 299 298 298 298 298
305 306 305 306 306 307 308 309 309 310 310 310 309 309 309 309 309 309 309 309 308 306 305 304 304 305 306 306 305 304 304 304 305 308 309 308 308 306 303 302 301 299 299 299 299 298 298 298 298 298 297 295 295 295 297 298 298 297 297 297 297 297 297
Wind_Speed
11 11 10 9 9 9 9 8 7 7 6 6 6 7 7 7 7 6 6 6 6 5 5 6 6 5 4 3 2 2 1 1 2 3 2 2 3 3 4 4 3 3 4 2 1 2 2 2 4 5 6 7 8 8 7 8 7 6 6 6 5 6 9
12 13 11 10 10 10 9 8 7 8 8 7 7 7 7 7 7 6 6 6 6 6 5 5 5 5 4 4 4 4 3 1 1 1 1 2 2 2 4 4 3 3 4 3 3 4 3 3 4 5 6 8 10 10 9 10 10 9 9 9 8 9 10
14 13 12 12 11 10 10 9 8 8 9 8 8 8 8 7 7 6 6 7 7 7 6 6 5 6 6 6 7 6 5 3 2 2 1 0 1 2 3 4 4 4 4 4 4 5 6 5 3 5 6 7 9 10 10 11 11 11 11 11 11 11 11
14 14 13 12 11 10 10 9 10 9 9 9 8 8 8 8 7 7 7 7 7 7 7 7 6 6 7 7 8 8 8 6 5 4 3 2 1 1 1 2 2 2 2 2 3 4 4 2 4 6 6 8 10 10 10 10 11 11 11 12 13 13 13
13 13 13 13 11 11 10 10 10 10 9 9 8 8 8 8 8 8 8 7 8 8 8 8 7 7 7 8 8 8 9 8 7 6 5 5 4 2 2 1 0 0 1 1 2 3 2 4 5 5 7 8 9 11 10 10 11 11 11 11 12 13 12
11 12 13 13 12 11 11 11 11 10 9 9 8 8 8 9 9 9 8 8 8 8 8 8 8 8 7 8 8 9 9 9 9 8 8 8 7 6 4 4 3 3 2 3 2 1 2 5 6 5 7 8 9 10 8 8 10 11 11 11 10 10 10
9 10 11 12 12 12 12 12 11 10 9 8 8 9 9 10 10 10 10 9 9 9 8 8 8 8 7 8 9 9 9 9 9 9 9 9 9 8 7 6 6 6 5 5 4 2 3 5 5 5 7 8 9 9 7 6 8 9 10 10 10 9 10
9 10 10 11 13 12 12 12 12 11 10 9 9 9 9 10 11 11 10 10 9 9 8 7 7 7 7 8 9 9 9 9 9 9 9 9 9 9 8 7 7 7 7 6 5 4 3 4 4 5 6 5 5 6 6 6 7 8 8 9 9 9 9
10 10 10 12 13 13 14 13 12 12 11 10 9 9 9 10 10 11 10 10 10 9 9 8 7 7 7 8 8 9 9 8 9 9 8 9 9 9 9 8 8 8 8 7 6 5 4 3 4 5 5 3 2 3 4 4 6 7 6 6 8 8 8
12 12 12 13 14 16 16 14 14 13 12 11 10 10 10 10 10 10 10 10 10 9 9 8 8 8 8 8 8 8 9 8 9 8 8 8 8 8 8 8 8 8 8 8 8 7 5 3 2 3 3 1 1 1 3 3 4 5 5 5 6 7 7
12 12 14 14 15 17 17 16 15 15 13 13 12 11 10 10 10 10 9 10 9 9 9 8 8 8 8 8 8 8 8 8 8 8 8 8 8 8 8 8 8 8 9 8 8 8 7 4 2 2 1 1 2 2 1 3 4 5 6 5 6 6 6
13 13 13 14 14 14 15 17 17 16 15 15 14 12 11 11 10 10 9 9 9 9 9 8 8 8 8 8 7 7 7 7 8 8 7 7 7 7 8 8 8 8 8 8 8 8 7 6 4 2 1 0 1 3 1 3 4 4 5 5 6 5 5
13 13 13 13 12 11 12 17 18 16 14 14 15 14 12 11 11 10 10 9 9 9 8 8 8 7 7 7 7 7 6 6 7 7 6 6 6 6 6 7 7 7 6 7 7 7 7 7 6 5 4 2 2 1 1 2 5 6 5 5 5 4 4
13 12 13 14 12 10 11 15 17 15 11 11 14 15 13 12 12 11 10 10 9 9 8 8 7 7 7 7 6 6 6 6 6 6 6 5 5 5 5 5 6 5 5 6 6 5 6 6 5 5 5 4 4 3 2 4 7 7 5 4 4 4 3
12 12 14 14 13 11 11 13 14 13 11 10 11 13 13 13 13 12 11 10 10 9 8 8 7 7 7 7 7 6 5 5 5 5 5 4 4 4 4 4 4 4 4 4 4 4 4 4 4 5 5 4 5 4 4 5 6 7 6 5 4 4 3
12 12 13 14 14 12 11 11 13 13 12 11 10 11 12 13 13 13 12 11 10 10 8 8 7 6 6 6 6 6 5 5 4 4 4 4 4 4 3 3 3 2 2 3 2 3 3 2 2 4 4 4 5 5 4 4 4 5 6 6 5 4 4
11 12 13 13 14 14 12 11 12 12 12 12 11 11 11 12 12 12 12 11 11 10 8 7 6 6 5 5 5 6 5 5 4 3 3 3 3 3 2 2 2 2 1 1 1 1 2 2 2 3 3 3 4 4 3 2 2 3 5 6 5 4 4
10 12 12 11 12 15 14 12 12 12 11 11 11 11 11 11 11 11 11 10 10 9 8 7 6 5 5 5 5 5 5 4 4 3 3 3 3 3 2 2 2 2 1 1 1 1 1 1 1 2 2 2 3 3 2 1 1 2 4 5 5 4 3
9 10 11 10 11 13 14 13 12 12 12 12 12 12 11 11 11 11 10 10 10 10 9 7 7 6 5 5 5 5 5 4 4 4 4 4 4 4 4 4 3 3 3 3 3 2 1 1 0 1 0 0 1 2 2 1 2 2 3 4 5 5 4
8 9 10 9 9 11 12 12 12 12 13 13 13 12 12 12 11 10 10 10 10 10 9 8 7 7 7 7 7 6 5 5 5 5 5 6 6 6 6 6 6 6 6 6 4 3 3 2 1 2 1 1 3 2 3 3 3 4 4 4 4 4 3
9 10 10 8 8 9 11 12 13 12 12 13 13 13 12 12 12 11 10 10 9 9 9 8 7 8 8 8 8 7 6 6 7 7 7 7 7 8 8 8 8 8 8 9 8 7 7 6 6 7 7 6 6 5 4 4 4 5 5 4 4 4 4
10 11 11 9 9 10 13 15 14 13 12 12 12 11 11 11 11 11 10 9 9 9 8 8 9 9 9 8 8 7 7 7 8 8 7 7 7 7 8 8 9 10 10 11 11 10 10 10 9 8 8 9 9 8 6 6 6 6 6 6 7 6 6
8 10 11 10 10 12 15 15 13 13 13 12 10 10 11 11 10 10 9 9 9 9 9 10 11 11 10 9 8 7 7 7 7 7 7 7 7 7 7 7 8 10 11 11 12 12 13 13 11 10 9 9 9 8 8 7 7 7 6 7 9 8 9
6 8 9 10 11 13 13 13 12 12 12 11 10 11 10 10 10 10 9 9 9 8 8 10 11 10 10 11 10 8 7 7 7 7 7 7 6 6 6 6 6 8 9 9 11 12 14 16 16 14 14 13 11 10 9 9 8 8 8 9 9 8 10
5 5 6 7 8 10 10 10 10 10 10 10 9 9 9 9 9 8 8 8 8 7 7 9 9 8 8 9 10 9 7 7 7 6 6 6 6 5 5 5 6 7 7 6 7 9 11 13 15 16 17 17 16 15 14 12 10 8 7 7 7 7 6
4 4 5 5 7 7 8 8 9 9 9 9 8 7 7 8 9 9 8 8 7 6 6 7 7 6 6 6 7 7 6 5 5 5 5 5 5 4 4 4 4 5 5 4 5 7 8 9 11 14 17 19 19 19 17 16 15 12 8 5 6 5 3
2 3 3 4 6 7 8 8 8 8 8 8 9 8 8 9 9 8 7 6 5 4 5 6 6 6 6 6 7 7 6 4 4 4 3 3 3 3 2 2 2 2 3 3 4 5 6 7 8 10 15 19 19 18 17 14 13 12 9 6 4 3 2
2 2 3 4 5 7 8 8 8 9 9 9 10 9 8 8 8 8 9 9 7 7 7 8 8 7 7 6 6 6 5 4 4 3 4 4 3 3 2 1 2 3 2 3 5 5 6 7 7 8 11 13 12 12 13 12 10 9 7 5 3 3 4
2 3 3 5 5 6 8 8 9 9 9 9 9 8 8 9 10 11 11 11 10 9 8 7 6 6 6 6 5 5 4 5 4 4 4 4 3 3 2 1 1 2 1 2 5 6 5 6 7 7 10 11 10 11 14 15 13 10 8 6 5 6 7
1 3 4 5 6 6 7 8 9 9 10 10 11 12 12 12 12 12 11 10 10 9 8 6 6 5 5 5 5 4 4 5 4 4 4 4 3 4 4 3 1 0 0 2 5 5 3 5 7 8 10 11 10 9 11 13 11 9 8 7 7 8 9
0 2 3 4 5 6 8 8 8 9 10 11 12 13 13 12 11 11 10 10 10 9 9 8 7 6 5 5 5 5 4 4 4 4 4 4 4 3 4 4 3 1 1 2 3 2 3 5 6 7 9 10 9 7 8 8 7 6 7 7 8 10 10
2 2 2 2 3 5 7 9 9 10 10 11 12 12 12 12 11 11 10 10 10 10 9 9 9 8 7 7 7 5 3 4 5 4 4 5 5 4 3 3 4 3 2 1 2 2 5 6 5 6 7 7 7 7 6 6 5 4 6 8 9 10 11
4 4 3 2 2 4 6 8 10 12 11 11 12 12 12 12 12 12 12 12 12 10 9 9 9 8 7 7 7 6 4 4 5 5 5 6 6 6 6 4 4 4 3 3 3 4 6 8 6 4 4 4 5 5 4 3 4 5 6 7 8 9 10
5 5 5 4 4 5 6 8 10 13 13 13 14 14 14 13 13 13 14 13 12 11 11 10 8 7 7 6 7 6 4 3 5 6 6 6 6 6 7 7 6 6 5 4 4 4 5 7 6 4 3 2 3 3 2 3 5 6 6 6 7 9 9
5 5 5 6 6 6 7 9 10 13 14 14 15 16 15 14 13 14 15 16 15 14 13 11 9 9 8 8 8 8 6 6 6 6 5 5 5 6 8 8 8 8 7 6 6 5 4 4 3 2 2 2 4 4 3 2 3 5 6 7 8 9 10
4 4 4 6 7 8 8 9 10 13 14 14 16 16 15 14 14 14 15 15 16 16 15 12 11 12 11 10 10 10 9 8 8 6 5 5 6 7 9 10 10 9 8 7 6 5 4 2 1 2 2 3 3 3 2 2 4 5 6 8 9 10 10
5 4 4 5 6 7 9 9 10 13 14 15 17 17 15 15 15 16 16 14 14 16 15 14 14 15 14 13 12 11 10 9 9 7 5 5 8 9 9 10 11 10 9 7 6 5 3 2 1 1 1 2 3 3 1 3 5 6 7 8 9 9 9
Wind_Direction
144 140 140 135 132 127 124 121 112 106 102 98 96 89 81 77 74 76 79 76 71 70 72 69 61 54 43 35 29 22 27 194 224 250 244 202 200 186 183 216 233 240 262 308 94 165 161 113 123 111 93 89 80 73 69 65 67 65 57 51 51 74 87
142 143 144 139 135 132 127 120 110 108 107 98 91 86 79 75 71 70 70 62 54 53 58 61 56 52 48 40 38 41 41 42 360 306 284 242 224 180 166 188 211 223 226 212 194 189 187 186 153 126 119 108 89 77 75 74 74 74 70 66 61 64 73
144 145 144 140 138 135 131 122 115 114 112 106 94 86 79 74 69 63 61 54 48 47 47 50 53 55 58 56 55 54 50 49 52 44 27 276 235 218 182 175 189 211 203 191 197 194 201 213 158 133 138 121 97 81 76 79 81 79 74 72 72 71 72
147 146 143 141 141 137 132 124 120 118 114 112 103 90 80 75 74 70 67 62 54 50 50 56 61 62 63 61 60 59 54 53 61 71 73 73 98 212 191 167 184 221 219 191 179 186 203 193 130 130 126 114 106 96 86 84 83 81 77 75 75 75 75
150 147 143 142 143 138 133 127 124 122 119 117 109 96 85 81 82 77 72 69 63 60 61 67 67 62 61 61 59 56 53 50 51 63 77 75 75 91 102 105 122 188 253 13 126 174 177 134 135 134 123 119 108 98 96 93 87 82 78 78 78 77 78
150 146 142 142 142 137 135 132 128 128 126 123 114 102 94 89 86 81 76 73 70 69 69 70 68 63 62 64 62 57 53 51 49 55 65 65 63 68 74 74 64 72 77 58 72 136 139 136 145 131 118 114 103 101 109 105 93 84 76 74 75 74 76
151 146 143 142 141 136 135 134 130 130 129 126 118 109 104 99 92 87 83 79 77 78 76 75 71 64 62 67 66 62 58 55 55 58 59 58 57 55 56 63 63 57 58 55 55 85 120 135 143 130 118 116 117 126 135 120 99 86 78 71 68 71 72
152 148 147 143 141 138 136 134 131 131 132 129 123 116 111 106 101 96 91 87 84 83 82 80 77 70 68 72 72 67 64 61 61 63 62 60 57 55 52 55 61 58 51 49 48 57 89 120 139 141 136 132 133 134 132 119 100 89 86 78 68 66 70
161 154 152 149 145 142 139 135 132 133 135 134 131 126 120 115 110 105 99 95 91 88 88 85 84 81 76 78 78 74 71 66 66 66 67 67 62 60 58 55 62 62 51 49 50 47 58 99 137 153 157 155 137 130 135 127 106 93 87 85 77 66 65
176 164 160 157 153 149 144 139 136 136 138 138 138 136 130 125 120 115 108 103 97 93 92 88 88 88 83 83 83 79 75 72 72 70 69 71 67 65 63 60 64 63 56 55 56 55 60 77 129 164 179 192 198 160 150 131 108 96 79 68 76 73 68
185 172 166 163 162 157 149 145 144 142 143 143 142 141 137 133 129 126 119 113 106 100 97 94 93 92 90 89 87 84 80 77 75 74 74 75 71 71 69 67 68 66 62 62 60 59 64 67 91 171 224 263 299 309 154 131 107 91 85 72 69 73 75
192 180 170 168 173 169 157 153 152 150 150 146 144 145 144 140 137 134 129 123 117 110 106 103 99 97 97 97 95 92 88 84 82 79 78 77 75 76 75 71 71 70 66 66 64 61 61 61 64 87 129 233 334 345 357 135 120 90 89 91 85 79 81
193 179 173 174 182 181 166 158 155 156 159 153 147 148 148 145 142 138 136 133 128 122 116 112 109 105 104 104 103 102 100 98 93 89 86 83 81 80 79 77 74 72 68 69 70 66 64 62 59 67 80 94 100 50 10 98 113 107 97 102 109 103 94
190 178 177 180 183 180 171 163 159 161 169 165 155 151 149 148 145 140 140 138 135 132 128 124 122 117 114 111 108 106 106 104 99 98 99 95 91 87 84 85 82 76 74 77 81 79 75 74 70 75 82 90 100 103 95 104 115 122 122 122 126 118 111
189 181 180 182 185 180 173 171 168 167 171 169 161 155 152 149 146 144 143 141 141 139 135 134 132 130 127 122 118 112 110 108 104 105 108 106 103 99 91 92 90 88 88 90 94 93 90 87 87 90 89 94 103 105 109 121 128 134 137 145 149 133 116
189 184 182 185 186 183 179 177 175 172 170 165 160 159 157 153 151 149 147 145 144 142 140 141 140 140 139 136 132 128 122 121 117 116 121 118 115 112 108 107 101 97 102 110 108 100 101 97 91 100 98 97 110 110 107 117 130 139 142 150 164 157 130
188 187 188 189 188 186 186 185 182 177 171 165 163 163 162 160 159 156 153 152 149 147 147 147 147 148 149 146 143 138 137 139 137 134 132 131 135 138 140 140 132 133 143 144 142 132 130 128 110 116 120 118 119 114 111 117 129 145 147 149 159 160 144
188 189 190 193 191 190 191 192 190 185 177 172 170 170 169 170 169 166 165 162 158 157 158 158 159 162 162 160 155 149 151 157 161 163 165 173 181 176 176 188 180 174 196 205 199 187 150 149 141 133 146 149 137 120 108 136 138 149 159 156 157 162 166
185 190 195 200 200 197 197 198 197 191 186 182 178 179 181 180 181 183 181 176 174 172 170 170 174 177 178 175 170 165 166 176 190 194 196 205 208 205 207 210 204 202 212 219 220 208 172 148 41 72 63 340 146 140 146 177 170 178 188 174 169 175 180
187 190 197 203 206 206 204 205 204 198 194 191 188 190 192 190 191 192 189 186 183 179 177 182 188 192 194 192 188 186 187 198 214 220 221 225 224 223 224 219 212 211 213 215 216 210 199 192 217 214 190 281 280 226 199 204 196 199 206 201 208 212 196
205 204 205 210 217 222 221 216 212 206 198 195 196 197 195 194 194 192 190 190 188 185 186 192 197 200 205 207 205 204 208 215 222 224 226 230 230 229 230 226 222 218 215 216 215 216 224 220 218 224 216 216 236 238 227 225 219 220 225 231 252 257 246
213 210 209 212 219 228 229 221 212 205 198 195 198 197 195 198 201 200 197 195 195 195 192 192 197 201 206 211 213 211 213 217 220 221 224 227 226 229 233 231 226 224 227 236 234 228 234 233 221 221 218 211 215 223 229 235 235 238 242 254 265 265 266
207 205 202 205 211 219 221 214 205 201 200 203 208 209 206 205 208 212 209 201 199 199 197 202 212 217 215 214 214 209 206 208 208 211 218 224 226 229 234 231 230 235 240 247 244 234 237 243 238 224 215 215 221 222 226 236 242 244 249 263 270 269 277
198 202 201 200 203 210 212 207 202 202 203 208 211 210 209 207 209 215 213 208 206 203 206 220 231 233 227 225 222 213 206 205 205 207 213 223 228 228 229 227 229 242 249 249 245 238 236 242 243 235 225 225 230 227 226 234 241 246 255 264 270 271 277
194 201 204 205 203 205 208 206 205 204 203 207 206 203 203 202 205 210 213 215 213 208 217 232 237 233 230 232 225 211 205 203 198 199 203 212 220 221 222 222 217 227 242 252 248 241 238 238 239 237 233 231 233 230 229 232 236 244 258 267 271 268 273
207 211 216 218 212 210 213 213 210 204 200 202 201 201 207 209 211 215 219 220 212 203 211 218 218 213 213 217 208 192 190 193 189 195 202 205 217 220 222 231 227 221 234 250 239 233 242 246 240 236 233 231 232 233 233 232 233 239 247 262 272 262 255
192 209 215 211 207 210 213 211 206 200 199 206 207 209 217 219 216 210 199 188 173 165 174 170 165 173 179 179 177 174 176 184 189 198 202 201 212 217 220 247 263 252 251 255 238 232 246 252 246 238 232 228 228 232 232 229 231 238 241 245 260 254 234
146 168 186 191 197 206 206 206 208 205 208 216 218 217 219 209 194 176 159 151 149 149 150 144 143 152 156 158 165 169 175 189 196 196 193 189 194 203 210 240 273 285 289 269 253 248 246 242 238 232 222 215 210 210 212 212 212 219 221 219 225 236 250
138 164 182 189 195 199 197 200 206 204 203 206 203 198 193 180 167 157 150 151 154 154 152 150 150 155 158 162 169 173 185 198 203 201 199 191 187 195 194 194 259 289 299 266 268 266 243 223 220 210 194 187 181 186 201 208 209 211 219 231 246 256 266
151 180 193 195 196 194 191 192 193 190 188 187 181 176 172 166 158 154 152 152 150 145 144 149 156 163 172 178 178 185 201 205 201 202 198 182 173 191 199 200 217 322 97 265 283 280 230 195 198 195 184 178 174 177 197 210 214 222 238 255 267 270 274
344 210 206 197 188 185 186 184 182 180 178 175 171 167 164 160 157 156 155 152 146 138 131 128 129 136 154 170 177 185 195 191 185 190 180 158 145 169 198 204 193 172 236 274 280 265 183 160 175 187 180 179 182 177 182 199 213 236 258 271 276 277 278
337 296 243 219 194 187 185 182 178 177 178 176 173 171 168 166 163 159 156 152 148 142 134 131 128 128 135 145 153 165 180 172 169 180 178 156 135 134 163 191 192 191 215 220 178 160 145 141 161 187 182 188 207 201 178 177 195 237 267 278 284 288 291
323 315 306 302 264 223 206 195 185 183 186 187 183 178 176 173 168 164 164 160 157 153 148 143 137 134 135 133 133 148 178 178 168 175 179 166 150 137 132 141 159 159 145 141 142 138 142 144 144 157 171 190 209 198 181 200 240 259 273 282 288 291 290
319 302 296 297 285 258 233 219 206 197 195 194 188 183 182 182 177 174 172 170 167 166 165 161 155 149 146 140 138 149 169 175 170 174 176 174 168 148 130 129 138 133 119 120 124 125 143 152 146 140 156 190 213 215 223 265 280 285 284 280 280 280 278
333 306 291 284 277 263 246 235 224 214 210 205 195 189 187 187 184 181 181 181 181 180 176 174 175 172 166 164 159 157 163 171 173 174 173 174 170 146 134 138 143 138 134 136 135 132 139 151 159 182 229 245 253 266 275 269 281 286 280 274 278 279 278
330 318 304 289 275 261 251 242 232 225 221 213 204 199 197 194 190 187 188 189 189 189 186 183 185 182 178 176 170 163 167 171 167 165 172 175 163 142 141 154 159 152 151 152 147 144 143 153 209 267 268 263 281 306 309 267 269 280 281 280 282 282 280
300 300 302 295 279 262 251 244 236 229 223 218 213 210 208 206 200 196 197 196 191 189 187 188 193 191 184 179 174 168 167 165 161 161 164 157 151 148 154 166 167 161 161 164 162 161 165 173 200 253 283 314 344 359 318 269 274 280 283 283 282 283 286